Simultaneous Nadir Overpasses (SNOs) Predictions

Prediction of SNOs between NOAA-21 and LANDSAT-8 Satellite Orbit:

Table of predicted SNOs for the next 14.0 days since TLE Epoch: 10/19/2024
Index Date (NOAA-21) Time (NOAA-21) Lat,Lon (NOAA-21) SZA (NOAA-21 ) Date (LANDSAT-8) Time (LANDSAT-8) Lat,Lon (LANDSAT-8) SZA (LANDSAT-8 ) Distance(km) Time Diff (sec)
1 10/19/2024 14:03:55 70.19, -34.65 80.38 10/19/2024 14:04:53 70.18, -34.66 80.36 1.92 58
2 10/19/2024 14:54:36 -70.07, 132.85 99.74 10/19/2024 14:54:23 -70.07, 132.81 99.74 1.73 13
3 10/19/2024 15:45:08 69.35, -58.77 79.56 10/19/2024 15:43:59 69.41, -60.45 79.61 66.04 69
4 10/22/2024 06:20:49 70.16, 81.18 81.30 10/22/2024 06:21:20 70.15, 81.18 81.28 1.82 31
5 10/22/2024 07:11:30 -70.04,-111.31 98.82 10/22/2024 07:10:50 -70.04,-111.34 98.82 1.08 40
6 10/24/2024 21:47:04 -70.50, 29.12 97.45 10/24/2024 21:48:16 -70.40, 29.80 97.55 27.46 72
7 10/24/2024 22:37:43 70.11,-162.96 82.17 10/24/2024 22:37:46 70.12,-162.96 82.19 1.64 3
8 10/24/2024 23:28:25 -70.03, 4.48 97.90 10/24/2024 23:27:16 -70.02, 4.53 97.91 2.43 69
9 10/27/2024 14:03:52 -70.15, 145.45 96.89 10/27/2024 14:04:44 -70.17, 145.37 96.87 3.48 52
10 10/27/2024 14:54:37 70.08, -47.14 83.06 10/27/2024 14:54:11 70.05, -47.15 83.03 3.54 26
11 10/27/2024 15:45:02 -69.10, 121.61 97.91 10/27/2024 15:43:55 -69.18, 119.29 97.84 92.41 67
12 10/30/2024 05:30:18 70.98, 92.58 84.82 10/30/2024 05:31:25 70.87, 94.70 84.72 77.60 67
13 10/30/2024 06:20:46 -70.15, -98.77 96.00 10/30/2024 06:21:06 -70.17, -98.72 95.99 2.39 20
14 10/30/2024 07:11:30 70.04, 68.72 83.90 10/30/2024 07:10:33 70.05, 68.75 83.90 1.48 57
15 11/01/2024 21:46:56 70.22,-150.41 84.92 11/01/2024 21:47:56 70.22,-150.36 84.92 1.91 60
16 11/01/2024 22:37:38 -70.13, 17.05 95.16 11/01/2024 22:37:26 -70.12, 17.13 95.18 3.28 12
17 11/01/2024 23:28:11 69.44,-174.60 84.16 11/01/2024 23:27:02 69.50,-176.09 84.21 58.29 69



Historial Predications of SNOs between NOAA-21 and LANDSAT-8
